Dewpoint
51 51 51 51 51 51 51 51 51 50 50 50 50 51 51 51 51 51 52 52 52 52 52 52 52 52 53 54 54 53 53 51 49 48 47 45 47 50 57 56 56 58 57 39 40 39 38 37 37 35 35 29 31 29 31 33 31 25 24 21 19 16 15 18 14 14 14 11 11 11 12 11 10 15 45 59 59 60 61 62 62 64 64 64 66 66 65 66
50 51 51 51 51 51 51 51 51 51 51 51 50 51 51 51 51 51 52 51 52 52 52 52 51 52 53 53 53 53 52 50 48 47 46 47 53 54 55 59 59 59 55 39 36 35 35 34 35 34 31 26 32 26 32 31 32 28 23 21 16 18 17 19 17 16 11 10 11 12 13 12 11 12 31 54 56 57 58 61 63 63 65 66 66 65 65 67
50 50 51 51 51 51 51 51 51 51 51 51 51 50 50 50 51 51 51 51 51 51 51 51 52 52 52 52 52 53 51 49 44 37 38 56 56 56 57 59 60 60 48 38 34 32 32 32 32 31 30 29 33 29 31 28 31 30 22 19 19 19 17 15 14 14 14 13 12 12 12 12 12 12 37 54 54 56 58 60 61 62 63 65 65 65 66 66
51 50 51 51 51 51 51 51 51 51 51 51 51 51 51 51 51 51 51 51 51 51 51 51 51 52 52 52 52 52 49 44 23 28 40 56 60 58 57 59 61 57 40 40 35 28 30 31 32 30 30 28 29 30 29 28 28 25 27 23 22 18 19 18 17 16 14 14 13 12 12 11 11 12 52 55 54 54 56 60 61 61 63 65 65 65 65 66
50 51 51 51 51 51 50 50 50 50 50 50 51 50 50 51 52 52 52 52 51 51 51 51 51 51 51 52 52 51 47 1 31 38 42 62 64 59 57 62 59 42 38 36 28 27 29 30 31 29 25 24 28 28 28 28 27 24 27 27 26 24 23 22 17 15 14 17 13 13 11 11 12 23 54 54 50 49 51 56 60 63 64 65 65 65 65 65
50 51 50 50 51 51 51 50 50 50 50 50 50 50 50 51 51 51 51 51 52 51 51 51 51 50 51 52 51 50 22 -7 16 29 58 63 64 59 59 62 54 37 34 30 28 25 25 27 29 27 26 25 28 26 27 28 27 24 25 25 24 21 21 19 20 20 18 16 13 12 13 11 10 10 30 48 49 48 52 58 61 64 65 66 66 65 65 65
50 50 49 50 50 50 50 50 50 50 50 50 50 50 51 51 51 51 50 50 51 51 50 50 51 51 51 52 47 40 26 20 32 34 60 65 63 59 59 62 59 38 31 27 25 24 24 23 26 26 25 25 25 27 27 29 25 26 24 26 26 22 20 19 19 19 17 14 12 13 12 9 8 7 24 52 55 57 62 62 64 65 66 66 66 65 63 60
49 50 50 50 50 50 50 50 50 50 50 50 51 51 51 51 51 51 50 50 50 50 50 50 50 51 51 47 44 39 27 23 28 30 65 64 60 58 59 55 48 39 32 28 25 22 23 22 23 25 24 19 21 26 27 26 25 25 24 23 22 22 21 21 18 15 13 11 10 11 8 7 9 9 24 28 48 60 62 64 64 65 66 66 65 61 60 60
49 50 51 50 51 51 51 50 50 50 50 50 50 50 51 50 51 50 50 50 50 50 50 50 50 50 52 48 36 4 -2 12 28 52 58 58 57 54 51 48 43 38 35 29 23 22 23 22 23 21 14 22 24 24 25 24 22 23 24 25 24 23 22 21 18 16 14 11 10 8 6 6 8 15 25 21 57 61 63 63 64 65 65 65 63 60 60 59
48 49 50 50 51 51 51 51 50 50 51 50 50 50 50 50 50 50 50 50 50 50 50 50 50 50 48 46 24 11 7 9 51 54 58 55 52 48 42 44 41 36 35 31 23 22 22 21 23 24 23 23 24 23 24 22 20 22 23 23 22 22 18 13 11 9 8 9 9 6 5 5 16 31 26 44 60 62 63 63 64 65 65 63 59 59 60 59
49 49 49 50 50 51 51 50 50 50 50 50 50 50 50 50 50 50 50 50 50 50 50 50 50 50 46 46 22 13 13 49 48 51 54 51 48 44 44 42 40 38 35 30 27 21 22 22 25 25 28 23 22 20 21 21 24 20 19 13 10 9 11 9 8 7 7 6 6 6 5 9 9 12 12 29 61 62 62 63 64 64 63 60 59 60 60 59
49 49 49 50 50 50 50 50 50 50 50 50 49 49 50 50 50 50 50 50 50 50 50 50 50 48 48 43 33 21 19 44 48 46 50 48 48 45 43 42 40 38 31 29 27 25 24 22 28 26 21 27 20 19 19 19 14 12 12 9 10 11 11 12 8 9 8 6 8 8 7 6 8 3 4 44 62 61 62 63 63 64 61 60 60 60 59 59
48 49 49 49 49 49 49 49 50 50 50 49 49 49 50 50 50 50 50 50 49 49 49 50 49 48 44 30 28 31 27 26 28 32 30 31 33 44 42 40 41 36 31 27 26 26 23 28 29 26 28 27 25 22 16 16 17 15 13 11 10 11 9 10 13 10 8 6 10 8 6 8 9 7 10 61 61 61 62 62 63 63 61 60 60 59 59 59
48 48 49 49 49 49 49 49 49 49 49 49 49 49 49 49 50 50 50 50 50 50 51 51 50 48 41 28 28 30 31 32 34 34 32 37 34 34 39 33 40 37 29 25 24 26 23 28 29 29 25 24 25 23 21 15 15 13 12 12 13 10 11 12 13 12 8 9 10 8 10 8 7 8 18 59 61 61 60 62 62 62 60 60 60 59 58 58
48 48 48 48 48 49 49 49 49 49 49 49 49 49 49 49 50 50 50 50 49 50 50 52 49 47 38 36 39 40 50 38 39 37 36 34 33 33 35 31 31 34 29 26 25 29 25 26 25 23 22 25 21 19 16 11 13 17 9 10 16 10 11 11 15 20 11 9 9 7 15 8 7 8 47 60 61 60 60 61 62 62 60 60 60 60 59 58
48 48 48 48 48 48 48 49 49 49 49 49 49 49 49 50 50 51 49 49 51 51 50 48 47 47 37 28 30 45 49 39 37 44 41 36 34 33 33 30 26 26 25 24 24 24 23 24 19 21 21 22 18 13 13 15 15 16 11 17 14 15 13 11 12 9 12 10 9 8 7 7 7 15 32 60 60 60 59 61 62 60 59 60 60 60 59 58
48 48 48 48 48 48 48 48 48 49 49 49 49 49 49 50 52 50 51 51 51 50 48 45 47 47 22 24 35 32 32 35 41 45 43 38 36 32 27 27 25 23 23 23 26 21 20 19 24 24 26 19 20 15 14 16 14 17 19 12 19 12 15 12 13 13 10 9 7 11 7 11 9 10 26 55 59 59 59 60 61 59 59 60 60 60 59 58
48 48 47 48 48 48 48 48 48 49 49 49 48 48 47 50 51 51 51 51 50 49 49 49 46 35 23 34 25 29 37 40 38 42 43 41 36 32 31 30 27 24 23 26 25 20 23 19 22 24 25 22 20 16 16 15 16 11 12 11 15 17 18 12 11 12 12 10 9 11 10 9 8 13 32 53 58 58 58 60 61 59 59 60 60 59 59 59
47 48 47 48 48 48 48 48 49 48 48 49 48 48 49 50 48 47 47 48 42 35 30 37 32 13 15 21 29 32 35 37 36 36 34 36 35 33 34 31 28 27 28 27 27 22 23 25 25 19 20 18 18 15 16 16 15 11 13 15 18 14 11 12 13 13 11 11 12 13 13 12 14 13 17 37 55 57 57 60 60 59 59 59 59 59 59 59
47 47 47 48 48 48 48 48 48 48 48 48 45 46 38 31 24 23 43 46 43 37 30 37 37 32 34 34 33 31 32 36 32 33 35 40 34 32 32 32 29 26 26 28 27 28 24 22 20 19 20 23 26 20 18 14 14 15 16 15 13 12 11 13 13 12 12 15 16 15 16 16 15 13 17 28 50 53 57 59 58 58 58 59 59 59 59 59
47 47 47 47 47 48 48 48 48 48 48 47 45 34 26 24 24 23 23 28 38 41 38 35 40 35 32 32 32 32 28 30 33 33 34 36 33 30 29 30 29 30 28 28 26 31 26 22 22 24 24 27 28 27 25 23 22 15 16 15 11 11 11 12 12 16 15 20 20 22 17 18 18 19 18 25 48 52 54 57 58 58 58 59 59 58 59 59
47 47 47 47 47 48 48 48 48 48 48 46 44 35 34 26 25 24 29 27 29 31 36 36 35 36 37 36 35 34 33 29 24 24 30 33 31 26 26 28 28 28 30 25 25 22 20 20 23 24 26 32 31 31 27 23 22 21 16 16 15 13 13 14 16 18 21 21 17 19 19 19 22 23 21 27 46 52 54 58 58 58 58 58 59 59 59 58
47 47 47 47 47 47 47 48 48 48 44 43 39 38 35 35 34 34 33 30 30 30 31 34 35 35 33 35 36 35 31 29 19 24 27 29 29 27 25 26 27 28 27 28 25 23 23 22 23 22 29 25 24 29 27 26 26 20 19 17 14 17 14 11 22 26 26 23 21 20 20 22 24 28 39 38 40 45 49 56 58 58 58 58 58 59 58 58
46 47 47 47 47 47 48 48 47 44 42 42 41 37 36 36 36 35 32 30 28 31 30 32 33 33 33 28 33 32 26 25 24 21 31 25 27 24 24 24 24 24 23 24 25 24 23 21 22 25 26 22 23 25 23 20 18 26 23 18 16 18 16 13 17 23 27 27 29 21 21 19 25 37 42 44 47 46 51 54 57 58 58 58 58 59 59 58
46 46 47 47 47 47 48 48 41 42 43 41 41 41 40 39 40 36 32 30 26 27 33 30 33 32 29 37 34 30 31 33 27 26 29 24 23 22 21 24 23 21 21 22 23 23 22 24 26 20 23 22 22 20 23 22 17 21 26 21 19 19 17 17 23 20 21 20 27 17 14 18 19 35 42 46 45 45 49 54 56 57 57 58 57 58 58 58
46 47 47 47 47 47 47 39 39 44 41 38 37 39 41 39 40 42 32 25 21 23 28 23 31 25 32 33 33 33 30 27 31 29 28 25 28 25 25 23 22 19 22 21 21 23 23 28 23 22 23 23 20 18 22 21 17 16 17 24 20 17 19 19 20 20 17 15 23 25 13 16 19 39 45 48 48 47 50 53 55 56 57 57 57 57 57 57
46 46 46 47 47 47 42 36 44 43 33 29 36 42 40 39 42 41 27 17 12 23 25 26 24 23 29 29 33 22 7 7 31 31 30 33 24 27 23 22 22 22 23 25 23 21 18 22 21 24 23 21 21 17 21 19 17 14 21 23 21 19 20 21 22 19 19 27 29 25 18 12 13 25 45 47 46 47 49 52 54 56 56 56 57 57 56 56
46 46 46 46 46 46 44 45 43 41 37 35 43 42 40 41 43 39 23 3 -4 11 29 26 22 26 25 32 29 14 12 24 20 25 29 28 25 24 23 20 21 21 18 23 21 27 24 21 22 20 21 18 16 16 24 19 15 16 26 22 21 19 21 21 20 23 23 17 14 18 25 15 17 25 41 47 44 44 46 50 52 54 55 56 56 56 55 55
46 46 46 46 46 47 46 45 43 42 42 44 44 42 42 43 40 31 20 4 9 23 27 19 26 20 27 32 29 24 22 24 19 25 28 25 25 23 24 20 21 21 16 23 23 22 19 19 17 17 16 15 17 16 22 19 17 18 27 25 24 23 25 24 21 20 17 11 10 14 22 13 16 25 37 44 46 45 45 48 51 53 54 55 55 55 55 55
46 46 46 47 46 45 43 46 44 44 44 45 44 43 43 35 26 23 11 4 20 16 20 22 12 11 27 28 27 27 24 21 23 27 26 23 23 25 24 22 20 21 19 18 19 23 24 38 27 16 15 14 17 19 21 18 16 24 22 19 18 21 21 27 24 21 13 7 11 15 24 16 13 22 37 41 43 45 46 47 50 52 54 54 54 54 55 55
46 46 47 47 45 44 44 39 40 42 44 44 43 41 31 25 23 13 8 13 21 22 17 13 13 13 11 14 21 22 22 21 19 25 23 24 23 24 24 20 23 23 22 21 19 20 19 18 18 18 24 17 14 14 19 19 19 18 20 18 18 18 18 16 20 19 7 9 13 17 20 19 12 19 28 34 40 41 48 48 49 51 53 54 54 55 55 56
46 47 47 46 46 46 42 34 34 44 45 44 42 29 22 11 16 13 12 21 16 15 14 9 11 8 8 11 16 18 18 20 21 23 21 21 23 22 22 22 22 18 18 18 18 24 21 19 18 16 38 15 16 14 16 18 20 18 21 20 17 16 11 7 14 7 7 12 15 22 23 17 17 24 36 42 44 45 46 49 50 51 53 53 53 54 55 57
47 47 48 47 48 46 46 45 44 45 45 44 33 21 15 12 5 16 14 17 17 15 12 18 10 9 8 10 19 19 19 12 20 23 23 23 22 22 23 22 22 22 17 23 19 18 20 22 18 17 15 23 15 13 15 13 19 17 15 17 15 9 5 2 9 10 14 15 18 20 23 18 25 33 36 43 45 46 46 47 50 52 53 52 53 54 54 55
47 47 46 46 47 46 47 47 47 46 43 41 26 17 11 3 7 35 15 21 16 16 11 11 11 8 12 14 13 22 18 22 21 22 23 25 22 23 23 22 23 22 23 23 17 18 12 14 15 16 14 19 15 13 13 17 18 17 17 15 16 14 9 3 13 4 8 12 18 23 17 14 25 31 43 45 47 48 48 49 50 51 52 52 53 53 54 55
47 47 45 45 46 47 47 48 45 46 39 30 17 14 8 8 14 11 19 19 17 13 12 14 8 11 15 14 22 16 23 24 25 21 23 22 23 24 23 22 24 25 24 18 22 16 14 14 16 17 14 15 14 16 17 15 15 18 18 14 16 14 19 8 17 17 18 14 15 22 18 24 32 40 44 47 48 49 50 50 51 51 53 53 52 52 53 55
46 43 45 43 44 46 47 47 45 43 32 25 17 5 1 12 2 15 19 19 16 14 14 10 10 9 15 15 18 10 22 26 28 26 27 22 24 23 24 24 22 19 21 21 22 16 13 15 19 20 16 15 13 18 17 13 15 20 12 14 16 19 18 18 18 22 15 16 12 17 30 31 35 39 40 44 46 49 50 50 51 51 52 53 53 54 55 57
43 44 42 44 47 47 47 47 46 36 24 20 15 5 16 19 8 19 31 17 18 16 12 9 15 8 14 11 14 10 15 31 34 23 22 27 24 27 27 29 24 22 19 22 20 19 14 15 19 16 15 16 15 15 14 15 17 15 14 14 23 24 25 19 11 14 10 8 12 26 29 29 28 28 40 43 44 46 49 50 50 50 51 52 53 53 54 55
43 43 47 48 48 47 47 46 43 30 22 18 11 32 25 16 22 21 21 20 21 20 14 12 15 12 13 11 12 13 15 25 28 26 25 30 24 31 34 30 31 23 20 21 20 26 18 15 19 17 15 15 25 13 14 15 19 18 19 17 16 14 10 17 19 9 8 7 7 22 25 26 27 30 40 42 43 44 48 49 50 51 51 51 52 52 53 54
44 43 39 44 47 47 46 46 38 29 18 7 11 11 24 22 26 23 21 22 20 18 16 15 13 17 14 16 14 16 22 19 28 29 22 26 23 30 33 33 31 33 27 20 20 24 25 16 19 21 16 19 21 16 12 18 16 18 21 19 29 23 22 14 16 20 17 7 10 17 24 22 34 38 42 42 44 45 47 49 49 51 51 52 52 52 53 53
44 38 38 45 46 46 47 46 38 30 22 5 18 17 16 25 26 28 26 25 26 22 23 18 13 16 19 15 14 12 22 24 29 30 25 30 27 35 32 37 31 34 32 25 25 29 19 20 15 20 22 20 16 26 20 20 15 15 18 18 19 24 26 21 23 18 17 12 10 14 17 23 30 43 44 44 45 46 47 48 49 50 51 51 51 52 53 53
41 37 37 45 45 47 46 40 34 29 25 27 27 27 31 30 30 30 29 29 28 27 26 22 23 19 21 17 15 17 18 30 31 28 30 31 30 24 31 35 34 31 34 30 29 30 23 19 19 24 20 21 19 25 28 23 21 17 19 19 19 20 18 15 14 22 23 18 12 16 13 23 33 46 46 45 47 47 48 48 48 49 50 50 50 50 51 52
37 33 36 46 46 47 41 33 31 32 29 30 30 32 31 36 31 31 30 29 29 27 25 25 22 23 23 19 16 18 19 17 30 29 28 29 33 29 33 36 36 36 31 28 29 32 28 25 23 18 21 23 24 25 28 31 27 26 19 22 25 24 21 18 11 16 23 24 23 22 21 23 40 47 47 48 48 48 48 48 48 49 49 50 51 51 52 52
35 36 41 46 47 42 34 25 30 30 31 31 34 32 33 31 31 30 30 29 28 27 24 22 21 21 21 18 22 19 18 20 26 28 31 33 33 33 34 36 37 36 37 33 31 33 47 23 22 21 23 26 27 26 26 31 31 27 31 33 28 22 23 19 20 23 21 24 20 20 20 26 42 48 48 48 48 49 49 49 48 48 48 50 51 52 52 52
35 37 42 45 44 41 35 28 25 22 26 33 33 32 34 32 31 30 30 30 28 28 26 25 23 20 23 23 23 23 27 22 26 26 26 32 33 35 38 35 33 34 34 38 30 38 24 28 24 19 17 21 24 24 24 25 32 30 29 31 33 30 29 27 26 25 23 26 22 20 15 26 43 48 48 47 48 48 48 49 49 48 48 48 49 50 50 51
35 37 40 40 40 40 35 30 25 24 26 30 30 29 31 31 32 32 31 31 30 28 28 27 24 25 27 29 28 30 30 25 27 30 29 32 32 33 36 39 39 42 45 45 43 35 30 28 25 19 14 13 13 13 15 15 26 30 32 33 34 28 25 22 16 19 16 21 22 18 18 30 45 46 46 46 47 47 47 46 45 45 45 45 45 45 45 45
33 30 31 32 32 34 34 35 32 29 27 29 24 27 31 29 31 32 31 31 30 29 28 28 27 29 28 29 28 27 26 30 30 30 28 28 30 33 34 37 44 45 48 47 44 39 31 33 30 26 21 20 21 19 24 29 28 27 30 32 33 32 33 26 23 18 16 21 23 27 33 37 41 43 44 45 45 43 42 42 42 43 43 43 43 42 42 42
33 27 23 25 28 29 29 30 33 31 28 29 24 29 26 29 31 30 32 26 30 29 28 28 27 24 24 26 25 26 28 30 27 29 30 29 31 36 34 36 37 45 44 44 44 32 31 30 32 33 32 29 30 30 31 33 29 31 31 31 33 34 33 26 17 18 24 25 20 31 38 38 40 43 43 42 41 40 40 40 40 41 42 42 42 42 42 42
26 25 30 29 25 22 22 21 32 31 33 30 27 31 29 28 28 25 30 32 31 29 26 25 23 25 24 26 27 21 23 28 27 25 30 29 31 39 34 33 34 43 43 39 42 36 31 28 31 31 31 32 34 34 33 32 31 31 31 31 33 35 34 29 29 26 25 20 23 37 40 39 38 38 39 40 39 39 39 39 39 39 40 41 41 41 40 41
30 29 32 32 22 25 27 29 33 31 30 31 30 30 28 28 26 28 29 30 29 29 25 19 23 22 25 25 26 22 22 21 21 28 27 25 27 31 30 32 33 36 39 40 39 37 34 31 34 32 30 32 34 34 34 31 30 30 30 31 32 35 36 36 34 33 29 27 36 40 37 34 37 38 39 39 39 38 38 38 39 38 39 40 40 40 40 41
29 27 28 32 31 30 33 29 29 28 26 31 24 26 31 29 26 29 31 29 24 28 29 25 23 23 26 23 26 20 20 24 23 22 27 25 27 28 26 31 31 30 37 38 39 37 33 30 37 33 29 30 32 34 34 32 29 29 30 31 32 33 36 37 38 37 38 38 38 36 35 33 37 40 39 39 38 38 38 38 38 38 39 39 39 39 40 40
33 34 33 29 25 26 32 27 26 25 21 24 25 27 33 33 28 30 30 32 29 28 29 26 25 26 27 24 23 21 24 24 27 25 32 29 20 30 24 30 31 28 30 38 38 36 33 28 35 30 29 27 32 33 33 33 30 29 29 31 31 32 32 34 33 35 35 35 36 36 33 32 37 39 39 39 38 38 38 38 39 39 40 39 39 40 40 40
35 37 34 29 23 28 23 25 24 24 19 22 26 27 29 30 30 31 23 29 34 31 29 28 28 22 22 22 21 22 23 24 24 23 27 32 26 27 25 24 25 27 29 36 38 33 33 32 29 30 29 28 32 33 32 32 31 28 27 30 32 33 34 34 35 36 37 38 35 34 34 36 38 39 36 37 37 37 37 38 39 39 40 40 40 39 40 40